Location: Bukit Lungun
(2.6833°N, 113.9667°E)
Time: 11:23:14
(UTC+00:00)

ARIANE 5 DEB (SYLDA) - Pass Details

Date: 02 March 2021
Orbit: 359 x 19924 km, 5.9° (Epoch: 20 April)

Event Time Altitude Azimuth Distance (km) Brightness Sun altitude
Rises 19:19:25 0° 273° (W) 16,250 9.3 -49.1°
Enters shadow 19:25:47 - 274° (W) 14,864 9.1 -47.5°
Exits shadow 20:09:52 62° 64° (ENE) 1,323 4.2 -36.6°
Drops below altitude 10° 20:13:19 10° 86° (E) 2,217 6.1 -35.8°
Sets 20:14:42 0° 88° (E) 2,809 6.9 -35.4°
